[[{"header":{"parameterUnit":"m.s-1","parameterCategory":1,"la1":30.2991,"la2":30.254,"lo1":-89.0895,"lo2":-89.0444,"dy":0.0017,"dx":0.0017,"nx":28,"ny":28,"refTime":"2025-12-20T03:00:00:Z","depth":0,"parameterNumber":2,"parameterNumberName":"U-component_of_WINDS"},"data":[0,0,0,0,0,0,0,0,0,0,0,0,0,0,0,0,0,0,0,0,0,0,0,0,0,0,0,0,0,0,0,0,0,0,0,0,0,0,0,0,0,0,0,0,0,0,0,0,0,0,0,0,0,0,0,0,0,0,0.1392,0.1391,0,0.1372,0.1372,0.1372,0.1366,0.1367,0.1367,0.1367,0.1345,0.1345,0.1344,0,0,0,0,0,0,0,0,0,0,0,0,0,0.1422,0.1421,0.1392,0.1391,0.1391,0.1372,0.1372,0.1372,0.1366,0.1367,0.1367,0.1367,0.1345,0.1345,0.1344,0,0,0,0,0,0,0,0,0,0,0,0,0,0.1406,0.1421,0.1392,0.1386,0.1386,0.1372,0.1372,0.1372,0.1366,0.1367,0.1367,0.1367,0.1346,0.1345,0.1344,0.1334,0,0,0.1341,0.134,0,0,0,0,0,0,0,0,0.1407,0.1405,0.1387,0.1387,0.1386,0.1372,0.1375,0.1359,0.1366,0.1374,0.1367,0.1367,0.1354,0.1352,0.1348,0.1333,0.1332,0.134,0.134,0.1339,0.1339,0,0,0,0,0,0,0,0.1408,0.1406,0.1384,0.1387,0.1386,0.1384,0.1382,0.1372,0.1363,0.1373,0.1373,0.137,0.1353,0.1349,0.1348,0.1332,0.1341,0.134,0.1339,0.1339,0.1307,0.1307,0,0,0,0,0,0,0.141,0.1407,0.1385,0.1383,0.1397,0.1383,0.1381,0.1376,0.1363,0.1361,0.137,0.137,0.1351,0.1349,0.1347,0.1334,0.1339,0.1338,0.1338,0.1307,0.1307,0.1307,0,0,0,0,0,0,0.1411,0.1408,0.1385,0.1395,0.1392,0.1383,0.1377,0.1376,0.1371,0.1361,0.1359,0.1368,0.1351,0.1348,0.1337,0.1333,0.1338,0.1337,0.1307,0.1307,0.1307,0.1309,0,0,0,0,0,0,0.1412,0.1409,0.1405,0.1395,0.1391,0.1377,0.1377,0.1375,0.137,0.137,0.1358,0.1356,0.1351,0.1339,0.1336,0.1332,0.1336,0.1308,0.1307,0.1307,0.131,0.1309,0.1309,0,0,0,0,0,0.1413,0.1407,0.1405,0.1403,0.1387,0.1377,0.1374,0.1369,0.137,0.1366,0.1359,0.1357,0.1334,0.1338,0.1335,0.133,0.1308,0.1307,0.1307,0.131,0.1309,0.1309,0,0,0,0,0,0,0.1417,0.1405,0.1404,0.1394,0.1386,0.1376,0.1371,0.1368,0.136,0.136,0.1353,0.135,0.1339,0.1334,0.1338,0.132,0.1321,0.132,0.1324,0.1324,0.1323,0.1325,0.1335,0,0,0,0,0,0.1416,0.1409,0.1399,0.1392,0.1388,0.138,0.1375,0.1372,0.1363,0.136,0.1352,0.1344,0.1334,0.1329,0.132,0.1309,0.1306,0.1304,0.1304,0.1303,0.1302,0.1295,0.1294,0.1305,0.1305,0.1305,0,0,0.1416,0.1408,0.1404,0.1392,0.1386,0.1378,0.1378,0.1369,0.1363,0.1358,0.1348,0.1342,0.1331,0.132,0.1315,0.1315,0.1299,0.1303,0.1303,0.1302,0.1295,0.1294,0.1293,0.1305,0.1305,0.1305,0,0,0.141,0.1404,0.1397,0.1391,0.1382,0.1376,0.1374,0.1364,0.136,0.1349,0.1345,0.1337,0.1322,0.1315,0.1309,0.1301,0.1298,0.1298,0.1296,0.1289,0.1288,0.1287,0.1284,0.1283,0.1297,0.1297,0.1297,0,0.141,0.1399,0.1394,0.1386,0.138,0.1376,0.1368,0.1362,0.135,0.1346,0.1346,0.1327,0.132,0.1306,0.1304,0.13,0.1297,0.1299,0.1289,0.1288,0.1287,0.1284,0.1282,0.1297,0.1297,0.1297,0.1297,0,0.14,0.1392,0.1387,0.1376,0.137,0.1362,0.1354,0.1349,0.1345,0.134,0.1328,0.1319,0.1309,0.1305,0.1301,0.1291,0.1291,0.1291,0.1291,0.1286,0.1283,0.1282,0.1297,0.1297,0.1297,0.1297,0,0,0.1396,0.1382,0.138,0.1375,0.1364,0.1358,0.1349,0.1339,0.1334,0.1326,0.1318,0.1305,0.1304,0.1297,0.1293,0.1287,0.128,0.1286,0.1286,0.1285,0.1267,0.1268,0.1266,0.1278,0.1278,0.1277,0.1268,0,0.1389,0.1375,0.1369,0.1357,0.135,0.1345,0.1337,0.1329,0.1324,0.1316,0.1309,0.13,0.1299,0.1295,0.1289,0.1282,0.1276,0.1283,0.127,0.1269,0.1272,0.1264,0.1265,0.1257,0.1266,0.1266,0.1266,0,0.1379,0.1371,0.1359,0.1348,0.1345,0.1338,0.1328,0.1321,0.1311,0.1307,0.13,0.1296,0.1286,0.1287,0.1273,0.1278,0.1272,0.1267,0.1267,0.1265,0.1267,0.1262,0.1254,0.1252,0.1264,0.1264,0.1264,0,0.1378,0.1364,0.1354,0.135,0.1338,0.1333,0.1328,0.1318,0.1312,0.1303,0.1299,0.1289,0.1283,0.1274,0.1267,0.1269,0.1253,0.1254,0.1249,0.1249,0.1246,0.1246,0.1236,0.1243,0.1243,0.1243,0.1243,0,0.1371,0.1363,0.1353,0.1348,0.1338,0.1332,0.1323,0.1317,0.1308,0.1301,0.1296,0.1288,0.1279,0.127,0.1264,0.1253,0.125,0.1247,0.1245,0.1247,0.1247,0.1243,0.1243,0.1242,0.1242,0.1242,0.1243,0,0.1367,0.1361,0.135,0.1339,0.1336,0.133,0.132,0.1314,0.1308,0.1298,0.1295,0.1286,0.1275,0.1267,0.1253,0.1249,0.1237,0.1235,0.124,0.1239,0.1234,0.1235,0.1221,0.1218,0.1227,0.1227,0.1227,0,0.1363,0.1357,0.1346,0.1341,0.1335,0.1327,0.1321,0.1314,0.1308,0.1296,0.1291,0.128,0.1271,0.1254,0.1245,0.1234,0.1232,0.1227,0.123,0.1232,0.1231,0.1231,0.123,0.1227,0.1227,0.1227,0.1227,0,0.1356,0.1353,0.1345,0.1336,0.1329,0.1321,0.1313,0.1308,0.13,0.1293,0.1282,0.1275,0.1261,0.1249,0.1238,0.1231,0.1227,0.1226,0.1224,0.1226,0.1229,0.1227,0.1239,0.1227,0.1227,0.1227,0.1227,0.1227,0.1352,0.1346,0.1337,0.1328,0.1321,0.1314,0.1307,0.1301,0.1292,0.128,0.1276,0.1265,0.1255,0.1238,0.1231,0.1222,0.1222,0.1219,0.1218,0.1218,0.1218,0.1231,0.122,0.122,0.122,0.122,0.122,0,0.1344,0.1338,0.133,0.1319,0.1312,0.131,0.13,0.1294,0.1284,0.1276,0.1267,0.1254,0.1243,0.1233,0.1222,0.1216,0.1214,0.1213,0.1213,0.1211,0.1219,0.1221,0.1215,0.1215,0.1215,0.1215,0.1215,0.1215,0.1339,0.133,0.1325,0.1312,0.1305,0.1295,0.129,0.1282,0.1275,0.1262,0.1253,0.1247,0.1237,0.1225,0.1214,0.1211,0.1207,0.1207,0.1203,0.121,0.1211,0.1212,0.1214,0.1206,0.1206,0.1197,0.1197,0.1196]},{"header":{"parameterUnit":"m.s-1","parameterCategory":1,"la1":30.2991,"la2":30.254,"lo1":-89.0895,"lo2":-89.0444,"dy":0.0017,"dx":0.0017,"nx":28,"ny":28,"refTime":"2025-12-20T03:00:00:Z","depth":0,"parameterNumber":3,"parameterNumberName":"V-component_of_WINDS"},"data":[0,0,0,0,0,0,0,0,0,0,0,0,0,0,0,0,0,0,0,0,0,0,0,0,0,0,0,0,0,0,0,0,0,0,0,0,0,0,0,0,0,0,0,0,0,0,0,0,0,0,0,0,0,0,0,0,0,0,1.8775,1.8776,0,1.8823,1.8824,1.8824,1.8892,1.8893,1.8894,1.8896,1.8941,1.8941,1.8941,0,0,0,0,0,0,0,0,0,0,0,0,0,1.8739,1.874,1.8775,1.8776,1.8776,1.8823,1.8824,1.8824,1.8892,1.8893,1.8895,1.8896,1.8941,1.8941,1.8941,0,0,0,0,0,0,0,0,0,0,0,0,0,1.8768,1.874,1.8775,1.8816,1.882,1.8823,1.8824,1.8824,1.8892,1.8893,1.8895,1.8897,1.8941,1.8941,1.8941,1.8906,0,0,1.8941,1.8941,0,0,0,0,0,0,0,0,1.8766,1.8769,1.8809,1.8813,1.8818,1.8854,1.8828,1.8852,1.8891,1.8864,1.8896,1.8898,1.891,1.8913,1.8918,1.8909,1.8911,1.8941,1.8941,1.8942,1.8942,0,0,0,0,0,0,0,1.8764,1.8767,1.8794,1.881,1.8815,1.8831,1.8837,1.8832,1.8876,1.8867,1.8872,1.8877,1.8913,1.8917,1.8919,1.8911,1.8941,1.8942,1.8942,1.8942,1.8876,1.8874,0,0,0,0,0,0,1.8756,1.8765,1.8793,1.8796,1.8796,1.883,1.8837,1.884,1.8877,1.8884,1.8875,1.888,1.8916,1.8919,1.8921,1.8883,1.8942,1.8942,1.8942,1.8878,1.8876,1.8874,0,0,0,0,0,0,1.8755,1.8758,1.8791,1.8782,1.8787,1.8829,1.8832,1.884,1.8845,1.8883,1.8891,1.8872,1.8918,1.8921,1.891,1.8885,1.8942,1.8942,1.888,1.8877,1.8875,1.8806,0,0,0,0,0,0,1.8754,1.8757,1.8745,1.8781,1.8787,1.8779,1.8831,1.884,1.8846,1.8852,1.8882,1.8889,1.8919,1.8909,1.891,1.8887,1.8942,1.8882,1.8879,1.8875,1.8811,1.8802,1.8794,0,0,0,0,0,1.8752,1.8723,1.8744,1.8747,1.8773,1.8778,1.8781,1.8818,1.8843,1.8831,1.8856,1.8888,1.8888,1.8908,1.8909,1.8885,1.8884,1.888,1.8876,1.8815,1.8803,1.8794,0,0,0,0,0,0,1.8682,1.8729,1.8753,1.8735,1.8752,1.8789,1.8775,1.8804,1.8814,1.8819,1.8863,1.8869,1.8852,1.8868,1.8889,1.8854,1.8891,1.8887,1.8844,1.8834,1.8825,1.8821,1.8942,0,0,0,0,0,1.8665,1.8666,1.8706,1.8686,1.8694,1.8733,1.8736,1.8763,1.8782,1.8789,1.8813,1.8829,1.8833,1.8834,1.884,1.8814,1.8821,1.8798,1.879,1.8782,1.8778,1.8765,1.8755,1.886,1.886,1.886,0,0,1.8629,1.8654,1.8652,1.8673,1.8689,1.8688,1.8738,1.8735,1.8734,1.8788,1.8779,1.8797,1.8818,1.88,1.8793,1.8812,1.8751,1.8777,1.8771,1.8771,1.8759,1.8749,1.8741,1.8857,1.8858,1.8858,0,0,1.8562,1.8582,1.8567,1.8583,1.8608,1.8635,1.8631,1.8664,1.8678,1.8671,1.8711,1.8711,1.8716,1.873,1.8737,1.8676,1.8706,1.8677,1.8631,1.8617,1.8609,1.8602,1.8579,1.8571,1.8672,1.8672,1.8672,0,1.8513,1.8514,1.8556,1.855,1.8558,1.8608,1.8593,1.8606,1.8631,1.8635,1.8657,1.8665,1.8683,1.8668,1.8653,1.8658,1.8654,1.8673,1.8607,1.86,1.8594,1.8573,1.8565,1.8668,1.8669,1.8669,1.867,0,1.8453,1.8453,1.8438,1.8462,1.8468,1.8458,1.8497,1.8498,1.8524,1.8547,1.8538,1.8562,1.8573,1.8572,1.8597,1.856,1.8571,1.8599,1.8637,1.858,1.8561,1.8553,1.8663,1.8664,1.8665,1.8666,0,0,1.8342,1.839,1.8384,1.8395,1.8427,1.8427,1.8419,1.8431,1.8431,1.8446,1.844,1.8444,1.847,1.8479,1.8506,1.8494,1.8444,1.8524,1.8526,1.8508,1.8403,1.8381,1.8371,1.8464,1.8463,1.8462,1.8401,0,1.828,1.827,1.8307,1.8287,1.8287,1.8335,1.8328,1.8346,1.8368,1.837,1.8394,1.8396,1.8431,1.8437,1.8428,1.8452,1.8423,1.8457,1.8457,1.8457,1.8449,1.8361,1.8338,1.828,1.8394,1.8393,1.8392,0,1.8207,1.822,1.82,1.8233,1.8235,1.8227,1.8242,1.8244,1.8265,1.8282,1.8291,1.8323,1.8316,1.8354,1.8344,1.8366,1.8368,1.838,1.8379,1.8379,1.842,1.8358,1.8262,1.8253,1.8381,1.8382,1.8383,0,1.8128,1.814,1.813,1.8138,1.8177,1.817,1.8186,1.8209,1.8214,1.8226,1.823,1.824,1.8245,1.8252,1.8286,1.831,1.8272,1.8312,1.8285,1.8283,1.8273,1.8273,1.8175,1.8276,1.8276,1.8277,1.8277,0,1.8055,1.804,1.8095,1.8088,1.8073,1.8116,1.8099,1.8119,1.8139,1.8137,1.8179,1.8175,1.8221,1.8222,1.8248,1.8235,1.8238,1.825,1.8257,1.8246,1.8244,1.8247,1.8252,1.8274,1.8275,1.8275,1.8276,0,1.7963,1.7999,1.7991,1.8028,1.8037,1.8024,1.8056,1.8051,1.8076,1.8072,1.8073,1.8112,1.8115,1.815,1.816,1.8178,1.8155,1.817,1.8148,1.8153,1.8123,1.8125,1.8022,1.8011,1.812,1.8119,1.8118,0,1.7913,1.7904,1.7941,1.7943,1.7956,1.7959,1.7965,1.8006,1.801,1.8034,1.8025,1.8032,1.804,1.8043,1.8071,1.8079,1.8095,1.8058,1.8096,1.8085,1.8093,1.8093,1.8092,1.805,1.8048,1.8047,1.8046,0,1.7822,1.784,1.7848,1.7861,1.7867,1.7879,1.7894,1.7893,1.7939,1.7941,1.7946,1.7952,1.7963,1.7969,1.7983,1.7997,1.8028,1.8034,1.8028,1.8016,1.8004,1.8009,1.8125,1.8036,1.8037,1.8038,1.8038,1.8039,1.775,1.7743,1.7768,1.7775,1.7791,1.7803,1.7801,1.7826,1.7831,1.7844,1.7868,1.7869,1.789,1.7912,1.7924,1.7924,1.7943,1.7934,1.7932,1.7929,1.7923,1.8004,1.7927,1.7927,1.7927,1.7928,1.7928,0,1.766,1.7679,1.7684,1.7704,1.7709,1.774,1.7758,1.776,1.7761,1.7778,1.7786,1.7791,1.7797,1.7826,1.7835,1.783,1.7844,1.783,1.7831,1.7833,1.7906,1.791,1.7818,1.7818,1.7818,1.7818,1.7819,1.7819,1.7614,1.7604,1.7626,1.7624,1.7643,1.7645,1.7653,1.7664,1.7679,1.7683,1.7689,1.7708,1.773,1.7741,1.7748,1.7756,1.7757,1.7738,1.7751,1.7818,1.7828,1.7838,1.7843,1.7739,1.7738,1.7679,1.7679,1.7678]}]]